GW0743 Weather Reports


time (UTC)temp
C
wind
direction
speed
KPH
gust
KPH
rain 1hr
cm
rain 24hr
cm
rain mn
cm
humidity
%
barometer
mb
20260906180027 21 115 4.8 9.7 0.00 0.03 0.03 93 1019.7
20260906174530 21 87 8.0 11.3 0.00 0.03 0.03 93 1019.7
20260906173009 21 127 4.8 9.7 0.00 0.03 0.03 93 1020.2
20260906171517 21 128 4.8 8.0 0.00 0.03 0.03 93 1020.3
20260906170025 20 108 3.2 8.0 0.00 0.03 0.03 93 1020.3
20260906164531 20 120 4.8 11.3 0.00 0.05 0.03 94 1020.2
20260906163034 20 147 4.8 11.3 0.00 0.05 0.03 94 1020.4
20260906161515 20 142 8.0 14.5 0.00 0.05 0.03 94 1020.3
20260906160033 20 126 11.3 17.7 0.00 0.05 0.03 94 1020.0
20260906154540 20 128 6.4 12.9 0.00 0.05 0.03 94 1020.1
20260906153038 20 127 11.3 19.3 0.00 0.05 0.03 95 1020.0
20260906151531 20 120 11.3 19.3 0.00 0.05 0.03 95 1019.9
20260906150020 20 117 11.3 17.7 0.00 0.05 0.03 95 1019.9
20260906144523 20 144 11.3 16.1 0.00 0.05 0.03 96 1019.9
20260906143034 20 156 11.3 17.7 0.00 0.05 0.03 96 1020.0
20260906141533 20 142 9.7 19.3 0.00 0.05 0.03 96 1020.1
20260906140012 20 134 11.3 19.3 0.00 0.05 0.03 96 1020.0
20260906134519 20 108 6.4 16.1 0.00 0.05 0.03 96 1020.1
20260906133004 20 138 4.8 16.1 0.00 0.05 0.03 97 1020.1
20260906131507 19 139 9.7 16.1 0.00 0.05 0.03 97 1020.0
20260906130028 19 122 4.8 11.3 0.00 0.05 0.03 97 1019.8
20260906124518 19 127 8.0 14.5 0.00 0.05 0.03 97 1019.6
20260906123032 19 135 8.0 14.5 0.00 0.05 0.03 97 1019.3
20260906121505 19 132 8.0 16.1 0.00 0.05 0.03 97 1019.1
20260906120008 19 124 8.0 16.1 0.00 0.05 0.03 97 1018.9
20260906114512 19 141 4.8 11.3 0.00 0.05 0.03 97 1018.8
20260906113022 19 115 6.4 12.9 0.00 0.05 0.03 97 1018.7
20260906111534 19 128 6.4 11.3 0.03 0.05 0.03 97 1018.8
20260906110012 19 105 4.8 12.9 0.03 0.05 0.03 97 1018.9
20260906104514 19 112 1.6 8.0 0.03 0.05 0.03 97 1018.9
20260906103012 19 135 6.4 11.3 0.03 0.05 0.03 97 1018.9
20260906101520 18 143 6.4 11.3 0.00 0.03 0.00 97 1018.8
20260906100027 18 112 0.0 3.2 0.00 0.03 0.00 97 1018.6
20260906094512 18 96 0.0 3.2 0.00 0.03 0.00 96 1018.3
20260906093011 18 100 0.0 3.2 0.00 0.03 0.00 97 1018.4
20260906091525 18 104 0.0 3.2 0.00 0.03 0.00 97 1018.4
20260906090025 18 121 0.0 1.6 0.00 0.03 0.00 97 1018.3
20260906084530 18 106 1.6 3.2 0.00 0.03 0.00 96 1017.9
20260906083018 18 105 0.0 1.6 0.00 0.03 0.00 96 1017.9
20260906081531 18 107 0.0 3.2 0.00 0.03 0.00 96 1018.0
20260906080019 19 106 0.0 3.2 0.00 0.03 0.00 96 1018.0
20260906074524 19 105 0.0 3.2 0.00 0.03 0.00 96 1018.0
20260906073033 19 103 1.6 3.2 0.00 0.03 0.00 96 1018.0
20260906071532 19 147 1.6 4.8 0.00 0.03 0.00 96 1018.1
20260906070018 20 106 0.0 3.2 0.00 0.03 0.00 96 1018.2
20260906064533 20 108 3.2 6.4 0.00 0.03 0.00 96 1018.2
20260906063030 20 101 1.6 6.4 0.00 0.03 0.00 96 1018.3
20260906061534 20 115 3.2 8.0 0.00 0.03 0.00 96 1018.3
20260906060034 20 107 3.2 8.0 0.00 0.03 0.00 96 1018.3
20260906054518 20 115 4.8 8.0 0.00 0.03 0.00 97 1018.3
20260906053030 20 103 1.6 3.2 0.00 0.03 0.00 96 1018.4
20260906051534 20 104 0.0 3.2 0.00 0.03 0.00 96 1018.3
20260906050042 20 117 0.0 3.2 0.00 0.03 0.00 97 1018.0
20260906044515 20 72 0.0 0.0 0.00 0.03 0.03 96 1018.0
20260906043023 20 72 0.0 1.6 0.00 0.03 0.03 96 1017.9
20260906041504 20 110 0.0 0.0 0.00 0.03 0.03 96 1017.9
20260906040018 20 110 0.0 1.6 0.00 0.03 0.03 96 1017.8
20260906034510 20 110 0.0 0.0 0.00 0.03 0.03 96 1017.8
20260906033024 20 110 0.0 0.0 0.00 0.03 0.03 96 1017.9
20260906031526 20 110 0.0 0.0 0.00 0.03 0.03 96 1017.9
20260906030016 21 110 0.0 0.0 0.00 0.03 0.03 96 1018.0
20260906024510 21 110 0.0 0.0 0.00 0.03 0.03 96 1018.1
20260906023018 21 110 0.0 1.6 0.00 0.03 0.03 95 1017.9
20260906021523 21 110 0.0 1.6 0.00 0.03 0.03 95 1017.9
20260906020030 21 110 0.0 0.0 0.00 0.03 0.03 95 1017.5
20260906014508 22 110 0.0 0.0 0.00 0.03 0.03 95 1017.3
20260906013018 22 110 0.0 1.6 0.00 0.03 0.03 94 1017.1
20260906011518 22 113 0.0 0.0 0.00 0.03 0.03 93 1017.0
20260906010023 22 113 0.0 1.6 0.00 0.03 0.03 92 1017.1
20260906004528 23 113 0.0 0.0 0.00 0.03 0.03 92 1016.9
20260906003018 23 114 0.0 1.6 0.00 0.03 0.03 91 1016.8
20260906001514 23 122 1.6 1.6 0.00 0.03 0.03 90 1016.7
20260906000024 24 113 1.6 6.4 0.00 0.03 0.03 89 1016.7
20260905234528 25 112 3.2 8.0 0.00 0.03 0.03 87 1016.7
20260905233032 25 103 3.2 8.0 0.00 0.03 0.03 86 1016.7
20260905231509 25 119 6.4 9.7 0.00 0.03 0.03 85 1016.5
20260905230026 26 116 6.4 11.3 0.00 0.03 0.03 82 1016.3
20260905224525 26 82 8.0 12.9 0.00 0.03 0.03 82 1016.3
20260905223030 26 82 4.8 12.9 0.00 0.03 0.03 81 1016.0
20260905221531 26 125 9.7 16.1 0.00 0.03 0.03 81 1016.1
20260905220028 26 117 6.4 16.1 0.00 0.03 0.03 84 1015.9
20260905214519 26 97 9.7 14.5 0.00 0.03 0.03 85 1015.8
20260905213025 26 125 11.3 16.1 0.00 0.03 0.03 85 1016.0
20260905211530 26 134 4.8 14.5 0.00 0.03 0.03 87 1016.2
20260905210041 26 94 1.6 12.9 0.00 0.03 0.03 87 1016.2
20260905204514 26 88 4.8 16.1 0.00 0.03 0.03 87 1016.2
20260905203029 26 92 6.4 12.9 0.00 0.03 0.03 87 1016.1
20260905201535 26 106 4.8 12.9 0.00 0.03 0.03 88 1016.3
20260905200009 26 117 6.4 12.9 0.00 0.03 0.03 89 1016.3
20260905194512 26 129 6.4 11.3 0.00 0.03 0.03 89 1016.5
20260905193030 26 50 4.8 12.9 0.00 0.03 0.03 88 1016.5
20260905191505 26 68 6.4 17.7 0.00 0.03 0.03 88 1016.2
20260905190012 26 67 6.4 27.4 0.00 0.03 0.03 89 1015.9
20260905184515 25 51 8.0 17.7 0.00 0.03 0.03 91 1015.9
20260905183032 25 76 11.3 17.7 0.00 0.03 0.03 90 1016.0
20260905181521 25 69 6.4 16.1 0.00 0.03 0.03 92 1017.6